Vorticity
nan nan nan nan nan nan nan nan nan nan nan nan nan nan nan nan nan nan nan nan nan nan nan nan nan nan nan nan nan nan nan nan nan nan nan nan nan nan nan nan nan nan nan nan nan
nan 7 7 6 6 8 9 10 10 11 13 11 10 9 9 11 12 -1 -5 9 6 10 13 13 12 10 9 8 7 6 3 5 7 9 6 7 9 6 7 9 4 -0 10 16 nan
nan 7 6 5 6 9 13 12 12 10 12 18 16 8 10 12 4 -11 0 7 10 12 15 16 10 11 10 5 5 4 6 5 -0 8 10 6 7 7 10 10 9 6 7 10 nan
nan 6 7 6 7 9 11 10 12 12 13 16 11 11 11 13 -1 -7 5 9 12 14 15 18 13 7 10 10 0 3 9 8 1 2 9 9 6 9 7 8 12 15 12 7 nan
nan 6 7 7 8 7 7 8 10 16 14 10 12 16 12 10 -2 -1 8 12 11 12 13 8 17 14 5 5 8 9 4 7 6 -1 7 5 4 7 9 4 9 19 15 6 nan
nan 6 7 8 8 5 1 10 15 15 9 7 3 8 14 3 1 2 8 9 10 10 11 10 9 13 18 10 3 10 11 4 9 6 5 6 1 4 6 10 9 15 12 7 nan
nan 7 8 9 8 5 1 10 13 9 11 8 6 1 3 1 7 5 6 12 13 14 12 8 8 9 15 16 6 3 11 13 12 5 6 9 5 6 -1 7 14 11 12 8 nan
nan 7 9 10 9 8 6 14 14 -4 4 13 12 12 -3 -4 5 6 9 10 15 21 13 8 9 4 10 15 19 10 3 7 14 15 9 4 11 11 7 1 4 13 11 10 nan
nan 9 11 11 8 12 12 -0 4 11 0 6 12 7 2 -4 2 7 8 12 16 16 19 18 14 13 4 13 13 12 12 11 2 10 14 -1 6 20 12 6 2 7 11 10 nan
nan 10 14 13 8 15 18 2 -7 10 20 5 10 9 -5 6 3 4 11 16 15 17 17 18 19 15 8 6 16 12 2 12 15 5 7 6 4 7 14 12 8 7 10 8 nan
nan 9 16 11 9 17 18 12 8 -1 7 14 8 4 -2 14 5 -2 13 17 13 12 10 14 12 8 4 8 6 18 26 7 10 14 5 8 9 1 9 19 16 11 7 6 nan
nan 8 17 9 3 12 18 11 7 9 3 3 2 2 8 12 6 -2 14 17 10 3 11 16 5 4 10 13 12 6 23 24 8 10 4 9 11 3 5 13 16 21 19 6 nan
nan 7 18 16 -0 3 9 5 11 9 3 7 6 4 6 10 5 -0 13 14 9 5 12 12 4 4 11 12 21 14 8 20 20 8 8 8 16 2 1 8 6 12 13 13 nan
nan 5 20 21 6 6 0 5 13 9 2 2 11 5 4 18 5 0 12 17 7 5 12 11 4 10 15 8 11 22 15 0 16 16 10 8 11 13 2 0 2 4 8 10 nan
nan 9 11 15 15 8 4 10 12 8 1 6 13 1 3 15 6 3 15 14 6 11 12 4 6 13 13 5 11 9 5 19 15 19 20 6 5 17 4 2 3 3 7 8 nan
nan 13 15 12 7 4 9 14 10 8 7 6 2 2 7 8 11 7 10 20 16 7 10 10 11 8 5 12 12 13 18 14 14 20 21 12 7 10 4 7 6 3 6 8 nan
nan 11 11 11 4 8 15 10 8 7 5 6 4 5 9 9 7 7 12 11 11 10 6 16 12 4 8 23 5 7 25 19 11 7 24 20 -4 -3 11 20 16 6 5 6 nan
nan 6 8 7 10 14 10 8 9 8 4 5 4 11 10 8 8 6 12 7 5 15 11 10 4 5 16 16 10 9 12 17 14 6 15 17 2 0 9 12 11 10 8 7 nan
nan 6 5 3 16 14 9 10 7 7 5 4 12 16 2 5 10 9 10 10 4 6 14 12 6 8 13 3 11 20 11 11 17 9 4 9 13 10 8 7 6 7 7 7 nan
nan 6 1 8 17 15 13 9 8 6 7 11 12 4 1 6 10 10 13 7 3 7 14 11 9 5 6 8 8 11 15 14 14 11 5 4 9 4 9 7 7 7 7 7 nan
nan 6 1 13 17 10 9 8 10 8 11 11 8 6 4 4 13 12 10 3 4 11 13 15 8 3 9 8 8 12 13 11 10 12 14 10 -1 7 18 9 8 8 8 8 nan
nan 5 6 11 15 10 7 6 10 11 10 10 9 10 4 9 17 9 6 6 4 12 15 15 10 8 12 10 8 3 10 14 9 9 14 8 5 14 15 10 9 9 9 8 nan
nan 7 10 14 10 11 9 10 9 8 10 11 9 8 7 12 13 7 5 4 6 13 16 14 13 17 15 5 1 1 7 23 17 4 10 14 12 9 9 8 8 8 8 9 nan
nan 9 8 12 11 11 7 6 9 14 11 9 13 3 5 17 12 6 8 5 6 11 15 17 9 13 13 10 2 6 8 20 24 15 7 17 12 4 7 8 8 8 8 9 nan
nan 11 8 9 11 10 8 5 7 12 11 12 9 1 13 13 10 6 2 13 14 7 12 14 10 10 10 3 -0 6 10 11 15 17 19 14 2 3 6 7 9 9 8 7 nan
nan 9 8 9 9 4 7 10 9 11 10 5 3 9 17 12 4 1 11 14 8 7 9 11 13 9 8 7 -0 -2 6 11 9 14 14 6 2 6 8 6 5 7 8 8 nan
nan nan nan nan nan nan nan nan nan nan nan nan nan nan nan nan nan nan nan nan nan nan nan nan nan nan nan nan nan nan nan nan nan nan nan nan nan nan nan nan nan nan nan nan nan
CAPE
5 6 5 2 1 1 1 0 0 0 1 2 5 7 9 7 10 3 0 5 24 20 17 1 14 0 21 6 13 0 0 0 0 0 0 0 0 0 0 0 0 14 267 512 1500
6 7 2 0 1 1 1 0 0 2 6 7 1 6 6 4 1 0 0 18 7 8 0 2 12 7 58 44 1 0 0 0 0 0 0 0 0 0 0 0 0 3 542 1204 1646
3 0 0 0 0 0 0 0 0 0 7 2 0 1 2 5 1 0 3 0 19 4 0 0 0 12 31 55 14 7 0 0 0 0 0 0 0 0 0 0 0 0 697 1358 1665
0 0 0 0 0 0 1 0 3 8 1 0 0 0 0 1 0 0 0 0 0 0 0 8 1 28 24 49 35 14 0 0 0 0 0 0 0 0 0 0 0 0 465 1421 1632
0 0 0 0 0 0 0 0 1 10 0 0 0 0 0 0 0 0 0 0 0 0 0 0 5 30 9 13 38 34 15 0 0 0 0 0 0 0 0 0 0 0 434 1307 1627
0 0 0 0 0 0 0 0 0 19 0 0 0 0 0 0 0 0 0 0 0 0 0 0 8 39 36 22 23 21 39 25 0 0 0 0 0 0 0 0 0 0 452 1107 1440
0 0 0 0 0 0 0 0 0 2 1 0 0 0 0 0 0 0 0 0 0 0 0 0 0 0 34 29 20 32 39 31 8 0 0 0 0 0 0 0 0 0 206 967 1153
0 0 0 0 0 0 0 0 0 0 0 0 0 0 0 0 0 0 0 0 0 0 0 0 0 0 8 48 44 38 37 58 9 1 0 0 0 0 0 0 0 0 59 587 993
0 0 0 0 0 0 0 0 0 0 0 0 0 0 0 0 0 0 0 0 0 0 0 0 0 25 14 32 78 66 25 36 32 0 0 0 0 0 0 0 0 0 14 713 977
0 0 0 0 0 0 0 0 0 0 0 0 0 0 0 0 0 0 0 0 0 0 0 6 25 44 51 37 51 22 68 14 31 2 0 0 0 0 0 0 0 0 14 838 52
0 0 0 0 0 0 0 0 0 0 0 0 0 0 0 0 0 0 0 0 0 0 0 0 15 47 0 0 11 11 9 29 13 14 2 0 0 0 0 0 0 0 13 2 0
0 0 0 0 0 0 0 0 0 0 0 0 0 0 0 0 0 0 0 0 0 0 0 0 0 0 0 3 1 12 21 31 23 20 9 0 1 0 0 0 0 0 161 0 0
0 0 0 0 0 0 0 0 0 0 0 0 0 0 0 0 0 0 0 0 0 0 0 0 0 0 0 0 8 8 16 17 19 29 31 8 11 20 0 0 0 0 0 0 1
0 0 0 0 0 0 0 0 0 0 0 0 0 0 0 0 0 0 0 0 0 0 0 0 0 0 0 1 6 0 1 1 11 67 43 11 0 16 0 0 0 0 0 0 0
0 0 0 0 0 0 0 0 0 0 0 0 0 0 0 0 0 0 0 0 0 0 0 0 1 8 13 0 0 1 0 7 26 20 40 41 31 1 0 0 0 0 0 0 0
0 0 0 0 0 0 0 0 0 0 0 0 0 0 0 0 0 0 0 0 0 0 0 0 1 3 2 0 0 2 4 5 3 10 120 15 5 3 0 0 0 0 0 0 0
0 0 0 0 0 0 0 0 0 0 0 0 0 0 0 0 0 0 0 0 6 1 0 0 5 0 0 0 1 0 7 26 22 24 60 0 40 1 0 0 0 0 0 0 0
0 0 0 0 0 0 0 0 0 0 0 0 0 0 0 0 0 0 0 0 0 5 7 3 0 2 1 3 1 2 4 9 14 13 38 18 33 0 2 1 0 0 0 0 0
0 0 0 0 0 0 0 0 0 0 0 0 0 0 0 0 0 0 0 0 0 5 5 4 0 2 0 0 0 0 3 3 2 0 7 1 1 4 8 7 2 1 0 0 0
0 0 0 0 0 0 0 0 0 0 0 0 0 0 0 2 0 3 0 0 0 0 1 2 5 0 0 0 0 1 4 2 4 0 12 1 2 4 6 4 3 1 1 0 0
0 0 0 0 0 0 0 0 0 0 0 0 0 2 4 9 4 5 0 0 0 0 0 12 7 2 0 0 1 0 1 1 1 1 1 1 3 16 15 5 3 3 4 2 0
0 0 0 0 0 0 0 0 0 0 0 0 0 2 8 8 3 4 4 6 3 0 4 8 7 4 4 1 0 0 6 5 2 0 2 1 1 35 16 13 8 9 8 3 2
0 0 0 0 0 0 0 0 0 0 0 0 0 1 8 6 6 4 2 0 2 0 25 2 0 2 1 4 0 1 2 2 3 2 0 1 4 18 8 9 12 7 8 9 6
0 0 0 0 0 0 0 0 0 0 0 0 0 2 5 0 3 6 7 1 0 0 6 0 0 0 1 0 2 3 2 0 1 3 1 2 8 7 11 10 11 11 10 10 8
0 0 0 0 0 0 0 0 0 0 0 0 0 2 5 1 0 2 2 1 0 0 0 0 0 0 0 0 0 0 1 2 1 1 2 3 2 6 5 6 10 12 10 7 8
0 0 0 0 0 0 0 0 0 0 0 0 0 0 0 2 8 7 4 0 2 0 0 0 2 0 0 0 1 0 0 0 0 2 5 3 2 8 6 2 3 5 7 7 8
0 0 0 0 0 0 0 0 0 0 0 0 0 0 0 0 0 0 1 3 3 0 0 0 1 5 2 0 0 2 1 2 3 2 1 0 2 4 3 2 2 3 4 5 6